W5IM Weather Reports


Display with metric or nautical units.
time (UTC)temp
F
wind
direction
speed
MPH
gust
MPH
rain 1hr
in
rain 24hr
in
rain mn
in
humidity
%
barometer
mb
20260903062008 84 183 6.0 10.0 0.00 0.00 0.00 83 1012.7
20260903061506 84 182 7.0 10.0 0.00 0.00 0.00 83 1012.7
20260903061009 83 188 7.0 12.0 0.00 0.00 0.00 83 1012.7
20260903060507 84 181 6.0 12.0 0.00 0.00 0.00 83 1012.6
20260903060007 84 174 8.0 13.0 0.00 0.00 0.00 83 1012.6
20260903052007 84 178 7.0 14.0 0.00 0.00 0.00 82 1012.8
20260903051507 84 171 7.0 14.0 0.00 0.00 0.00 82 1012.8
20260903051007 84 183 7.0 13.0 0.00 0.00 0.00 82 1012.7
20260903050508 84 170 7.0 14.0 0.00 0.00 0.00 82 1012.7
20260903050008 84 178 7.0 13.0 0.00 0.00 0.00 82 1012.8
20260903045507 84 180 7.0 14.0 0.00 0.00 0.00 82 1012.8
20260903045008 84 177 9.0 17.0 0.00 0.00 0.00 82 1012.8
20260903044507 84 169 9.0 14.0 0.00 0.00 0.00 82 1012.6
20260903044007 84 176 9.0 13.0 0.00 0.00 0.00 82 1012.6
20260903043507 84 182 9.0 15.0 0.00 0.00 0.00 82 1012.6
20260903043007 84 164 9.0 17.0 0.00 0.00 0.00 82 1012.7
20260903042507 84 166 8.0 15.0 0.00 0.00 0.00 81 1012.7
20260903042008 84 169 8.0 16.0 0.00 0.00 0.00 81 1012.7
20260903041507 85 153 10.0 16.0 0.00 0.00 0.00 81 1012.6
20260903041007 85 176 8.0 14.0 0.00 0.00 0.00 81 1012.6
20260903040510 84 174 9.0 15.0 0.00 0.00 0.00 81 1012.6
20260903040009 85 174 7.0 14.0 0.00 0.00 0.00 80 1012.7
20260903035006 85 164 9.0 14.0 0.00 0.00 0.00 80 1012.4
20260903034007 85 164 8.0 15.0 0.00 0.00 0.00 79 1012.3
20260903033506 85 169 9.0 14.0 0.00 0.00 0.00 79 1012.3
20260903033007 85 167 8.0 14.0 0.00 0.00 0.00 79 1012.3
20260903032506 85 153 12.0 20.0 0.00 0.00 0.00 79 1012.3
20260903032008 85 156 9.0 15.0 0.00 0.00 0.00 78 1012.2
20260903031507 85 157 12.0 18.0 0.00 0.00 0.00 78 1012.1
20260903031008 85 165 9.0 15.0 0.00 0.00 0.00 78 1012.1
20260903030507 85 166 10.0 17.0 0.00 0.00 0.00 78 1012.0
20260903030007 85 160 11.0 16.0 0.00 0.00 0.00 77 1011.9
20260903025506 85 163 10.0 16.0 0.00 0.00 0.00 77 1011.8
20260903025007 85 167 8.0 16.0 0.00 0.00 0.00 77 1011.7
20260903024508 85 164 10.0 16.0 0.00 0.00 0.00 77 1011.6
20260903024008 86 168 9.0 16.0 0.00 0.00 0.00 76 1011.6
20260903023508 86 169 9.0 16.0 0.00 0.00 0.00 76 1011.5
20260903023008 86 158 12.0 17.0 0.00 0.00 0.00 76 1011.5
20260903022507 86 161 10.0 20.0 0.00 0.00 0.00 76 1011.4
20260903022007 86 168 12.0 22.0 0.00 0.00 0.00 75 1011.4
20260903021007 86 151 9.0 14.0 0.00 0.00 0.00 74 1011.1
20260903020507 86 154 12.0 17.0 0.00 0.00 0.00 74 1011.0
20260903020008 87 164 10.0 16.0 0.00 0.00 0.00 73 1010.9
20260903015506 87 159 12.0 21.0 0.00 0.00 0.00 72 1010.8
20260903014506 87 175 10.0 17.0 0.00 0.00 0.00 70 1010.7
20260903014007 87 179 9.0 15.0 0.00 0.00 0.00 69 1010.7
20260903013007 88 153 9.0 15.0 0.00 0.00 0.00 68 1010.7
20260903012507 88 157 10.0 17.0 0.00 0.00 0.00 68 1010.6
20260903012009 88 170 11.0 18.0 0.00 0.00 0.00 67 1010.6
20260903011008 89 169 10.0 17.0 0.00 0.00 0.00 65 1010.4
20260903010508 89 155 14.0 20.0 0.00 0.00 0.00 64 1010.3
20260903010007 89 153 13.0 18.0 0.00 0.00 0.00 63 1010.3
20260903005510 90 156 12.0 20.0 0.00 0.00 0.00 62 1010.3
20260903005009 90 162 10.0 17.0 0.00 0.00 0.00 61 1010.3
20260903004508 90 162 13.0 18.0 0.00 0.00 0.00 62 1010.3
20260903004009 91 146 14.0 20.0 0.00 0.00 0.00 61 1010.2
20260903003512 91 154 12.0 18.0 0.00 0.00 0.00 60 1010.2
20260903003009 91 153 10.0 18.0 0.00 0.00 0.00 60 1010.2
20260903002509 92 164 11.0 18.0 0.00 0.00 0.00 59 1010.3
20260903002009 92 147 13.0 20.0 0.00 0.00 0.00 59 1010.2
20260903001509 93 146 12.0 20.0 0.00 0.00 0.00 58 1010.2
20260903001008 93 145 14.0 20.0 0.00 0.00 0.00 58 1010.2
20260903000509 93 146 14.0 21.0 0.00 0.00 0.00 56 1010.3
20260903000009 94 139 13.0 21.0 0.00 0.00 0.00 54 1010.3
20260902235509 94 148 15.0 22.0 0.00 0.00 0.00 52 1010.3
20260902235009 94 150 12.0 18.0 0.00 0.00 0.00 51 1010.3
20260902234506 94 134 16.0 21.0 0.00 0.00 0.00 50 1010.2
20260902234007 95 134 13.0 20.0 0.00 0.00 0.00 48 1010.2
20260902233507 95 148 13.0 20.0 0.00 0.00 0.00 48 1010.1
20260902233007 95 137 13.0 18.0 0.00 0.00 0.00 47 1010.1
20260902232508 95 139 15.0 20.0 0.00 0.00 0.00 47 1010.0
20260902232011 96 133 14.0 21.0 0.00 0.00 0.00 47 1009.9
20260902231507 96 131 16.0 22.0 0.00 0.00 0.00 47 1009.9
20260902231007 96 134 15.0 22.0 0.00 0.00 0.00 46 1009.9
20260902230509 97 140 14.0 21.0 0.00 0.00 0.00 46 1009.9
20260902225506 96 144 14.0 20.0 0.00 0.00 0.00 45 1009.9
20260902225006 96 137 14.0 18.0 0.00 0.00 0.00 45 1009.8
20260902224507 96 138 13.0 18.0 0.00 0.00 0.00 45 1009.9
20260902224008 98 130 13.0 18.0 0.00 0.00 0.00 45 1009.8
20260902223008 98 139 13.0 20.0 0.00 0.00 0.00 46 1009.8
20260902222507 98 140 10.0 18.0 0.00 0.00 0.00 46 1009.8
20260902222008 98 161 13.0 22.0 0.00 0.00 0.00 46 1009.8
20260902221506 98 145 14.0 18.0 0.00 0.00 0.00 45 1009.8
20260902221008 98 127 14.0 20.0 0.00 0.00 0.00 46 1009.8
20260902220507 99 157 13.0 20.0 0.00 0.00 0.00 45 1009.8
20260902220006 98 150 13.0 20.0 0.00 0.00 0.00 46 1009.9
20260902215507 99 124 14.0 21.0 0.00 0.00 0.00 45 1009.9
20260902215007 99 129 15.0 21.0 0.00 0.00 0.00 45 1009.8
20260902214010 100 104 12.0 17.0 0.00 0.00 0.00 44 1009.9
20260902213507 100 162 10.0 17.0 0.00 0.00 0.00 41 1010.0
20260902213007 99 137 10.0 15.0 0.00 0.00 0.00 40 1009.9
20260902212509 98 136 12.0 16.0 0.00 0.00 0.00 42 1010.1
20260902212007 97 130 10.0 17.0 0.00 0.00 0.00 42 1010.1
20260902211508 98 132 12.0 18.0 0.00 0.00 0.00 41 1010.1
20260902211007 100 139 12.0 17.0 0.00 0.00 0.00 39 1010.1
20260902210508 100 137 9.0 12.0 0.00 0.00 0.00 35 1010.1
20260902210006 99 110 8.0 13.0 0.00 0.00 0.00 32 1010.2
20260902205507 98 143 6.0 10.0 0.00 0.00 0.00 33 1010.2
20260902204507 100 198 3.0 15.0 0.00 0.00 0.00 33 1010.4
20260902204009 100 180 2.0 8.0 0.00 0.00 0.00 32 1010.5
20260902202506 101 171 6.0 13.0 0.00 0.00 0.00 32 1010.6
20260902202008 101 176 6.0 14.0 0.00 0.00 0.00 33 1010.6
20260902201507 100 113 6.0 9.0 0.00 0.00 0.00 33 1010.7
20260902201007 100 201 2.0 3.0 0.00 0.00 0.00 34 1010.7
20260902200506 100 165 4.0 7.0 0.00 0.00 0.00 33 1010.9
20260902200006 99 108 7.0 12.0 0.00 0.00 0.00 34 1011.0
20260902195508 99 193 2.0 9.0 0.00 0.00 0.00 36 1011.0
20260902195007 99 222 6.0 12.0 0.00 0.00 0.00 35 1011.2
20260902194507 99 232 3.0 8.0 0.00 0.00 0.00 38 1011.3
20260902194007 98 274 7.0 9.0 0.00 0.00 0.00 37 1011.4
20260902193506 97 215 5.0 10.0 0.00 0.00 0.00 38 1011.5
20260902193007 97 204 5.0 7.0 0.00 0.00 0.00 38 1011.7
20260902192506 98 243 6.0 9.0 0.00 0.00 0.00 38 1011.7
20260902192007 98 203 6.0 8.0 0.00 0.00 0.00 38 1011.9
20260902191507 98 142 4.0 9.0 0.00 0.00 0.00 39 1012.0
20260902191011 99 210 4.0 13.0 0.00 0.00 0.00 38 1012.0
20260902190508 98 267 3.0 9.0 0.00 0.00 0.00 39 1012.0
20260902190007 98 196 6.0 12.0 0.00 0.00 0.00 39 1012.1
20260902185506 98 200 6.0 13.0 0.00 0.00 0.00 39 1012.1
20260902185007 98 145 7.0 10.0 0.00 0.00 0.00 38 1012.1
20260902184508 97 222 5.0 12.0 0.00 0.00 0.00 40 1012.2
20260902184007 97 225 5.0 8.0 0.00 0.00 0.00 42 1012.3
20260902183506 96 223 6.0 12.0 0.00 0.00 0.00 42 1012.6
20260902183007 96 219 5.0 9.0 0.00 0.00 0.00 43 1012.6
20260902182507 97 247 7.0 9.0 0.00 0.00 0.00 42 1012.7
20260902180007 95 229 6.0 12.0 0.00 0.00 0.00 45 1013.2
20260902175507 95 236 7.0 9.0 0.00 0.00 0.00 47 1013.2
20260902175007 95 217 6.0 10.0 0.00 0.00 0.00 47 1013.3
20260902174507 94 232 4.0 9.0 0.00 0.00 0.00 48 1013.3
20260902174007 95 212 6.0 12.0 0.00 0.00 0.00 49 1013.5
20260902173506 94 226 7.0 15.0 0.00 0.00 0.00 49 1013.5
20260902173008 94 204 7.0 12.0 0.00 0.00 0.00 49 1013.5
20260902172506 94 247 7.0 10.0 0.00 0.00 0.00 50 1013.5
20260902172007 93 221 9.0 15.0 0.00 0.00 0.00 50 1013.6
20260902171506 93 235 7.0 12.0 0.00 0.00 0.00 51 1013.7
20260902170507 93 212 9.0 14.0 0.00 0.00 0.00 50 1013.8
20260902170007 93 216 9.0 16.0 0.00 0.00 0.00 51 1013.8
20260902165506 93 235 7.0 13.0 0.00 0.00 0.00 52 1013.9
20260902165007 92 227 10.0 16.0 0.00 0.00 0.00 53 1013.9
20260902164507 92 209 10.0 16.0 0.00 0.00 0.00 51 1014.0
20260902164007 92 224 8.0 15.0 0.00 0.00 0.00 54 1014.0
20260902163506 92 191 9.0 14.0 0.00 0.00 0.00 53 1014.0
20260902163007 92 216 7.0 14.0 0.00 0.00 0.00 54 1014.0
20260902162508 92 192 9.0 16.0 0.00 0.00 0.00 55 1014.0
20260902162008 91 209 9.0 15.0 0.00 0.00 0.00 56 1014.1
20260902161508 91 212 9.0 18.0 0.00 0.00 0.00 56 1014.2
20260902161008 91 217 10.0 16.0 0.00 0.00 0.00 55 1014.1
20260902160507 91 222 9.0 14.0 0.00 0.00 0.00 57 1014.1
20260902160009 91 189 9.0 16.0 0.00 0.00 0.00 58 1014.1
20260902155508 90 201 10.0 16.0 0.00 0.00 0.00 58 1014.2
20260902155008 90 194 9.0 13.0 0.00 0.00 0.00 61 1014.1
20260902154008 89 201 14.0 20.0 0.00 0.00 0.00 61 1014.1
20260902153008 89 207 11.0 16.0 0.00 0.00 0.00 64 1014.1
20260902152008 88 214 9.0 15.0 0.00 0.00 0.00 69 1014.2
20260902151508 87 199 8.0 15.0 0.00 0.00 0.00 70 1014.3
20260902151008 87 226 11.0 16.0 0.00 0.00 0.00 71 1014.4
20260902150508 86 197 9.0 15.0 0.00 0.00 0.00 72 1014.3
20260902150007 86 216 9.0 14.0 0.00 0.00 0.00 74 1014.4
20260902145507 85 210 9.0 14.0 0.00 0.00 0.00 77 1014.5
20260902145008 85 216 9.0 13.0 0.00 0.00 0.00 77 1014.5
20260902144508 85 197 9.0 12.0 0.00 0.00 0.00 79 1014.5
20260902144008 84 209 10.0 17.0 0.00 0.00 0.00 80 1014.5
20260902143508 84 199 7.0 12.0 0.00 0.00 0.00 80 1014.5
20260902142507 85 205 8.0 14.0 0.00 0.00 0.00 80 1014.5
20260902141508 84 204 7.0 14.0 0.00 0.00 0.00 81 1014.4
20260902141008 83 193 9.0 13.0 0.00 0.00 0.00 82 1014.5
20260902140508 83 207 9.0 15.0 0.00 0.00 0.00 83 1014.5
20260902140007 83 202 7.0 10.0 0.00 0.00 0.00 84 1014.5
20260902135507 82 205 9.0 12.0 0.00 0.00 0.00 84 1014.5
20260902135008 82 184 6.0 10.0 0.00 0.00 0.00 85 1014.5
20260902134508 82 192 6.0 9.0 0.00 0.00 0.00 85 1014.4
20260902133008 81 181 4.0 7.0 0.00 0.00 0.00 87 1014.3
20260902132507 81 163 4.0 7.0 0.00 0.00 0.00 88 1014.2
20260902132008 81 178 3.0 7.0 0.00 0.00 0.00 88 1014.3
20260902131507 80 177 5.0 8.0 0.00 0.00 0.00 89 1014.3
20260902130508 80 185 4.0 7.0 0.00 0.00 0.00 90 1014.1
20260902130007 80 178 3.0 5.0 0.00 0.00 0.00 90 1014.0
20260902125509 80 188 3.0 6.0 0.00 0.00 0.00 90 1014.0
20260902125007 80 171 3.0 6.0 0.00 0.00 0.00 90 1014.1
20260902124008 80 167 3.0 6.0 0.00 0.00 0.00 91 1014.0
20260902123508 80 165 3.0 6.0 0.00 0.00 0.00 91 1013.9
20260902122507 79 178 2.0 5.0 0.00 0.00 0.00 91 1013.9
20260902121507 79 183 3.0 6.0 0.00 0.00 0.00 91 1013.7
20260902121008 79 194 4.0 7.0 0.00 0.00 0.00 90 1013.6
20260902120507 80 192 5.0 7.0 0.00 0.00 0.00 90 1013.6
20260902120008 80 191 4.0 6.0 0.00 0.00 0.00 90 1013.6
20260902115007 80 193 2.0 6.0 0.00 0.00 0.00 90 1013.7
20260902114508 80 181 4.0 8.0 0.00 0.00 0.00 90 1013.7
20260902113507 80 188 3.0 5.0 0.00 0.00 0.00 90 1013.6
20260902113008 80 174 2.0 5.0 0.00 0.00 0.00 90 1013.6
20260902112508 80 177 3.0 6.0 0.00 0.00 0.00 90 1013.6
20260902111507 80 188 3.0 6.0 0.00 0.00 0.00 90 1013.5
20260902111008 80 189 3.0 7.0 0.00 0.00 0.00 90 1013.4
20260902110507 80 176 3.0 6.0 0.00 0.00 0.00 90 1013.5
20260902110008 80 177 2.0 6.0 0.00 0.00 0.00 90 1013.5
20260902105508 79 188 2.0 5.0 0.00 0.00 0.00 90 1013.5
20260902105007 80 184 4.0 6.0 0.00 0.00 0.00 90 1013.6
20260902104508 80 184 3.0 6.0 0.00 0.00 0.00 90 1013.5
20260902104008 80 188 3.0 6.0 0.00 0.00 0.00 90 1013.5
20260902103508 80 184 3.0 6.0 0.00 0.00 0.00 90 1013.5
20260902103008 80 188 5.0 7.0 0.00 0.00 0.00 89 1013.4
20260902102508 80 195 4.0 7.0 0.00 0.00 0.00 89 1013.4
20260902102008 80 181 3.0 6.0 0.00 0.00 0.00 89 1013.5
20260902101508 80 182 2.0 5.0 0.00 0.00 0.00 89 1013.6
20260902101008 80 175 3.0 6.0 0.00 0.00 0.00 89 1013.6
20260902100008 80 176 2.0 6.0 0.00 0.00 0.00 89 1013.4
20260902095507 80 182 4.0 7.0 0.00 0.00 0.00 89 1013.4
20260902095008 80 189 5.0 8.0 0.00 0.00 0.00 89 1013.4
20260902094507 80 190 5.0 8.0 0.00 0.00 0.00 89 1013.4
20260902094008 80 191 5.0 7.0 0.00 0.00 0.00 88 1013.5
20260902093507 80 184 5.0 7.0 0.00 0.00 0.00 88 1013.6
20260902092507 80 177 3.0 5.0 0.00 0.00 0.00 88 1013.5
20260902092008 80 172 3.0 6.0 0.00 0.00 0.00 88 1013.5
20260902091507 80 172 4.0 7.0 0.00 0.00 0.00 88 1013.5
20260902091007 80 189 3.0 7.0 0.00 0.00 0.00 88 1013.6
20260902090007 81 179 3.0 7.0 0.00 0.00 0.00 88 1013.6
20260902085007 81 173 4.0 6.0 0.00 0.00 0.00 88 1013.5
20260902084508 80 182 4.0 7.0 0.00 0.00 0.00 88 1013.5
20260902083507 81 183 3.0 6.0 0.00 0.00 0.00 88 1013.6
20260902083008 81 176 4.0 8.0 0.00 0.00 0.00 87 1013.7
20260902081507 81 182 3.0 6.0 0.00 0.00 0.00 87 1013.8
20260902081007 81 177 4.0 6.0 0.00 0.00 0.00 86 1013.8
20260902080007 81 171 3.0 6.0 0.00 0.00 0.00 86 1013.8
20260902075007 81 194 5.0 9.0 0.00 0.00 0.00 86 1013.7
20260902074008 81 188 6.0 10.0 0.00 0.00 0.00 86 1013.8
20260902073507 81 174 5.0 8.0 0.00 0.00 0.00 86 1013.9
20260902073007 81 194 5.0 9.0 0.00 0.00 0.00 86 1013.9
20260902072507 81 192 5.0 7.0 0.00 0.00 0.00 86 1013.9
20260902072007 81 179 4.0 7.0 0.00 0.00 0.00 86 1013.8
20260902071508 81 192 5.0 8.0 0.00 0.00 0.00 86 1013.8
20260902071008 81 190 5.0 8.0 0.00 0.00 0.00 86 1013.8
20260902070507 81 192 5.0 9.0 0.00 0.00 0.00 86 1013.9
20260902065507 81 201 7.0 10.0 0.00 0.00 0.00 86 1013.8
20260902065008 81 195 6.0 9.0 0.00 0.00 0.00 86 1013.8
20260902064507 81 197 6.0 9.0 0.00 0.00 0.00 86 1013.9
20260902064008 81 196 6.0 10.0 0.00 0.00 0.00 85 1014.0
20260902063507 81 202 6.0 9.0 0.00 0.00 0.00 85 1014.0
20260902063008 81 195 6.0 9.0 0.00 0.00 0.00 85 1014.0